Weather History for Rome, NY

Change the Weather History Date:

Tuesday, May 28, 2013

  Actual Average Record
Temperature  
Mean Temperature 52 °F -  
Max Temperature 66 °F 73 °F 87 °F (2012)
Min Temperature 37 °F 50 °F 33 °F (1983)
Degree Days  
Heating Degree Days 14    
Growing Degree Days 2 (Base 50)    
Moisture  
Dew Point 46 °F    
Average Humidity 71    
Maximum Humidity 94    
Minimum Humidity 45    
Precipitation  
Precipitation 0.03 in - - ()
Sea Level Pressure  
Sea Level Pressure 30.14 in    
Wind  
Wind Speed 6 mph (SE)    
Max Wind Speed 12 mph    
Max Gust Speed -    
Visibility 10 miles    
Events Rain    
Averages and records for this station are not official NWS values.
T = Trace of Precipitation, MM = Missing Value Source: NWS Daily Summary

Daily Weather History Graph

Daily Weather History Graph

Search for Another Location

Airport:

Trip Planner

Search our weather history database for the weather conditions in past years. The results will help you decide how hot, cold, wet, or windy it might be!

Date:

Astronomy

May. 28, 2013 Rise Set
Actual Time 5:26 AM EDT 8:31 PM EDT
Civil Twilight 4:52 AM EDT 9:06 PM EDT
Nautical Twilight 4:08 AM EDT 9:50 PM EDT
Astronomical Twilight 3:16 AM EDT 10:42 PM EDT
Moon 11:49 PM EDT (5/28) 9:14 AM EDT (5/28)
Length of Visible Light 16h 13m
Length of Day
15h 05m
Waning Gibbous, 83% of the Moon is Illuminated
May 28
Waning Gibbous
May 31
Last Quarter
Jun 8
New
Jun 16
First Quarter
Jun 23
Full

Hourly Weather History & Observations

Time (EDT) Temp. Windchill Dew Point Humidity Pressure Visibility Wind Dir Wind Speed Gust Speed Precip Events Conditions
12:53 AM 42.1 °F - 37.0 °F 82% 30.20 in 10.0 mi Calm Calm - N/A   Clear
1:53 AM 41.0 °F - 37.0 °F 86% 30.20 in 10.0 mi Calm Calm - N/A   Clear
2:53 AM 41.0 °F 38.0 °F 37.0 °F 86% 30.20 in 10.0 mi East 4.6 mph - N/A   Clear
3:53 AM 39.9 °F 36.7 °F 37.0 °F 89% 30.20 in 10.0 mi East 4.6 mph - N/A   Clear
4:53 AM 37.9 °F 34.4 °F 35.1 °F 89% 30.20 in 10.0 mi SE 4.6 mph - N/A   Clear
5:53 AM 39.9 °F 35.8 °F 36.0 °F 86% 30.20 in 10.0 mi SE 5.8 mph - N/A   Clear
6:53 AM 44.1 °F 40.1 °F 37.9 °F 79% 30.19 in 10.0 mi ESE 6.9 mph - N/A   Clear
7:53 AM 51.1 °F - 39.9 °F 66% 30.18 in 10.0 mi ESE 9.2 mph - N/A   Clear
8:53 AM 55.9 °F - 42.1 °F 60% 30.17 in 10.0 mi SE 8.1 mph - N/A   Clear
9:53 AM 61.0 °F - 43.0 °F 52% 30.17 in 10.0 mi SE 9.2 mph - N/A   Clear
10:53 AM 64.0 °F - 42.1 °F 45% 30.16 in 10.0 mi ESE 10.4 mph - N/A   Clear
11:53 AM 64.9 °F - 45.0 °F 48% 30.16 in 10.0 mi ESE 9.2 mph - N/A   Clear
12:53 PM 64.9 °F - 46.9 °F 52% 30.15 in 10.0 mi SE 8.1 mph - N/A   Clear
1:53 PM 66.0 °F - 46.0 °F 48% 30.14 in 10.0 mi South 6.9 mph - N/A   Mostly Cloudy
2:53 PM 64.9 °F - 46.9 °F 52% 30.13 in 10.0 mi South 11.5 mph - N/A   Overcast
3:53 PM 62.1 °F - 50.0 °F 65% 30.13 in 10.0 mi SE 8.1 mph - 0.00 in Rain Light Rain
4:53 PM 60.1 °F - 53.1 °F 78% 30.12 in 10.0 mi ESE 4.6 mph - 0.00 in   Overcast
5:53 PM 62.1 °F - 53.1 °F 72% 30.10 in 10.0 mi ESE 6.9 mph - 0.00 in   Overcast
6:08 PM 62.1 °F - 52.0 °F 70% 30.10 in 10.0 mi ESE 6.9 mph - N/A   Overcast
6:53 PM 63.0 °F - 53.1 °F 70% 30.09 in 10.0 mi SSE 9.2 mph - N/A   Overcast
7:53 PM 62.1 °F - 53.1 °F 72% 30.07 in 10.0 mi SE 8.1 mph - N/A   Overcast
8:53 PM 62.1 °F - 53.1 °F 72% 30.08 in 10.0 mi SSE 8.1 mph - N/A   Overcast
9:53 PM 61.0 °F - 53.1 °F 75% 30.07 in 10.0 mi SE 8.1 mph - N/A   Overcast
10:53 PM 60.1 °F - 53.1 °F 78% 30.07 in 10.0 mi ESE 9.2 mph - N/A   Overcast
11:51 PM 57.2 °F - 55.4 °F 94% 30.04 in 10.0 mi ESE 11.5 mph - 0.03 in Rain Light Rain
11:53 PM 57.9 °F - 55.0 °F 90% 30.04 in 10.0 mi SE 11.5 mph - 0.03 in Rain Light Rain